Location: Grange Verzio
(44.5000°N, 6.9833°E)
Time: 18:03:38
(UTC+00:00)

Cosmos 2219 Rocket - Pass Details

Date: 29 September 2023
Orbit: 826 x 848 km, 71.0° (Epoch: 08 December)

Event Time Altitude Azimuth Distance (km) Brightness Sun altitude
Rises 04:12:45 0° 328° (NNW) 3,397 5.1 -14.0°
Reaches altitude 10° 04:15:19 10° 321° (NW) 2,462 4.3 -13.5°
Maximum altitude 04:20:32 40° 254° (WSW) 1,232 2.6 -12.6°
Drops below altitude 10° 04:25:44 10° 186° (S) 2,458 4.5 -11.7°
Sets 04:28:19 0° 179° (S) 3,391 5.3 -11.3°
